Regional Weather Roundup
Issued by NWS Jackson, KY

Home | Current Version | Previous Version | Text Only | Print | Product List | Glossary Off
Versions: 1 2 3 4 5 6 7 8 9 10 11 12 13 14 15 16 17 18 19 20 21 22 23 24 25 26 27 28 29 30 31 32 33 34 35 36 37 38 39 40 41 42 43 44 45 46 47 48 49 50

000
ASUS43 KJKL 191219
RWRJKL

EAST KENTUCKY HOURLY WEATHER ROUNDUP
NATIONAL WEATHER SERVICE JACKSON KY
800 AM EDT SAT APR 19 2014

NOTE: "FAIR" INDICATES FEW OR NO CLOUDS BELOW 12,000 FEET WITH
NO SIGNIFICANT WEATHER AND/OR OBSTRUCTIONS TO VISIBILITY.

* THESE REPORTS ARE NOT UNDER NWS QUALITY CONTROL AND MAY NOT
  REPORT WEATHER SUCH AS PRECIPITATION AND FOG.

KYZ079-080-083-085-087-088-110-112-115-119-120-191300
...EASTERN KENTUCKY...

CITY           SKY/WX    TMP DP  RH WIND       PRES   REMARKS
JACKSON        MOSUNNY   55  34  45 VRB3      30.22R
6HR MIN TEMP:  53; 6HR MAX TEMP:  58;

LONDON         PTSUNNY   53  36  52 NE7       30.21R
6HR MIN TEMP:  52; 6HR MAX TEMP:  55;

SOMERSET*      SUNNY     48  37  66 CALM      30.23R
MONTICELLO*    MOSUNNY   41  40  96 CALM      30.23R
6HR MIN TEMP:  37; 6HR MAX TEMP:  47;

MIDDLESBORO*   CLOUDY    45  42  90 CALM      30.19R
6HR MIN TEMP:  44; 6HR MAX TEMP:  48;

HARLAN APT*    PTSUNNY   46  39  76 SE3       30.19S
BLACK MTN*       N/A     48  32  53 N7          N/A
PIKEVILLE APT* SUNNY     54  36  50 NE6       30.21R
BIG SANDY*     MOSUNNY   52  38  58 N5        30.22R
6HR MIN TEMP:  51; 6HR MAX TEMP:  58;

ASHLAND*       SUNNY     48  43  81 CALM      30.24R
MOREHEAD APT*  SUNNY     55  39  54 MISG      30.26R
$$

KYZ035-036-041-042-044-050-067-078-099-191300
...CENTRAL KENTUCKY...

CITY           SKY/WX    TMP DP  RH WIND       PRES   REMARKS
MT STERLING*   MOSUNNY   46  37  71 NE3       30.25R
FLEMING/MASON* SUNNY     50  39  66 N7        30.27R
DANVILLE*      SUNNY     46  41  81 N5        30.24R
LEXINGTON      SUNNY     50  40  68 NE8       30.24R
6HR MIN TEMP:  46; 6HR MAX TEMP:  52;

FRANKFORT      SUNNY     50  39  66 N6        30.25R
6HR MIN TEMP:  43; 6HR MAX TEMP:  53;

$$

KYZ091>093-OHZ055-061-077-WVZ005-015-034-035-042-191300
...SOUTHERN OHIO/WEST VIRGINIA...

CITY           SKY/WX    TMP DP  RH WIND       PRES   REMARKS
COVINGTON      MOSUNNY   49  39  68 N8        30.28R
COLUMBUS       MOSUNNY   49  39  68 N8        30.33R
DAYTON         MOSUNNY   45  40  82 NE9       30.34R HAZE
WILMINGTON     SUNNY     46  41  82 NE14      30.30R
HUNTINGTON     SUNNY     48  40  73 N3        30.23R
CHARLESTON     PTSUNNY   47  41  80 CALM      30.22R
PINEVILLE*     CLOUDY    46  42  88 MISG      30.26R
BECKLEY        CLOUDY    46  33  60 E5        30.22R
BLUEFIELD      CLOUDY    49  33  54 E3        30.22R
$$

VAZ002-007-008-TNZ017-027-036-066-071-191300
...SOUTHWEST VIRGINIA/EAST TENNESSEE...

CITY           SKY/WX    TMP DP  RH WIND       PRES   REMARKS
WISE*          PTSUNNY   50  34  53 NE6       30.21S
ABINGDON*      CLOUDY    53  34  49 E7        30.18R
BRISTOL        CLOUDY    51  37  58 S3        30.17R
KNOXVILLE      CLOUDY    52  41  66 N5        30.15R
OAK RIDGE      CLOUDY    51  43  74 E3        30.17R
CROSSVILLE     PTSUNNY   53  36  52 NE9       30.19R
NASHVILLE      PTCLDY    52  45  77 N5        30.19R
$$

...KEY TO REMARKS...
VSB - VISIBILITY IN MILES
WCI - WIND CHILL INDEX
HX  - HEAT INDEX

$$



USA.gov is the U.S. government's official web portal to all federal, state and local government web resources and services.